Language: 


Des rapports , des résumés tant et plus, au choix de chacun....


Données Historiques de Météogheer
Journalier Rapport pour Janvier 14, 2018 Unitée:  Impériale    Métrique   Les deux
Suivant Jour »
Journalier Hebdomadaire Mensuel Annuel Sur mesure
  Max: Min: Moyenne:
Température: 44.4 °F 32.5 °F 36.5 °F
Point de rosée: 41 °F 33.8 °F 35.8 °F
Humidité: 98% 83% 95%
Vent: 6mph 0mph 1.6mph
Rafales: 7.6mph - -
Vent- - East
Pression: 30.1 in 30 in -
Pluie: 0 in    
Historical Graphs
 
 
Données tabulaires pour Janvier 14, 2018
Heure Température Point de rosée Pression Vent Vent Rafales Humidité Pluie Taux (Horaire) Conditions
00:20 37.2 °F 35.6 °F 30.1 in ENE 6 mph 7.4 mph 93% 0 in
00:26 37.2 °F 35.6 °F 30.1 in NE 4.9 mph 7.4 mph 94% 0 in
00:32 37 °F 35.6 °F 30.1 in NE 4.7 mph 7.2 mph 94% 0 in
00:51 36.3 °F 35.6 °F 30.1 in ENE 4.7 mph 6.5 mph 93% 0 in
01:11 36 °F 35.6 °F 30.1 in NE 5.4 mph 6.3 mph 95% 0 in
01:20 35.8 °F 35.6 °F 30.1 in NE 4.9 mph 6 mph 95% 0 in
01:42 35.6 °F 35.6 °F 30 in ENE 4.5 mph 5.6 mph 95% 0 in
01:47 35.4 °F 35.6 °F 30 in East 5.6 mph 5.6 mph 96% 0 in
01:52 35.4 °F 35.6 °F 30 in Calm   5.8 mph 96% 0 in
01:58 35.2 °F 33.8 °F 30 in ENE 5.4 mph 5.6 mph 96% 0 in
02:11 35.2 °F 33.8 °F 30 in ENE 5.4 mph 6 mph 97% 0 in
02:17 35.2 °F 33.8 °F 30 in ENE 4.9 mph 6 mph 97% 0 in
02:32 35.2 °F 35.6 °F 30 in ENE 4.3 mph 6.5 mph 98% 0 in
02:40 35.1 °F 35.6 °F 30 in NE 4.7 mph 6.5 mph 98% 0 in
02:49 34.9 °F 35.6 °F 30 in Calm   6 mph 98% 0 in
02:55 34.9 °F 35.6 °F 30 in NE 4.7 mph 5.4 mph 98% 0 in
03:00 34.7 °F 35.6 °F 30 in NE 4.7 mph 5.4 mph 98% 0 in
03:18 34.2 °F 33.8 °F 30 in NNE 2.5 mph 4.7 mph 98% 0 in
03:23 34.2 °F 33.8 °F 30 in Calm   5.6 mph 98% 0 in
03:36 34 °F 33.8 °F 30 in NE 2.9 mph 5.4 mph 98% 0 in
03:44 33.8 °F 33.8 °F 30 in NE 5.6 mph 6 mph 98% 0 in
03:53 33.8 °F 33.8 °F 30 in NE 4.9 mph 6.9 mph 98% 0 in
03:58 33.8 °F 33.8 °F 30 in NE 2.5 mph 6.9 mph 98% 0 in
04:16 33.6 °F 33.8 °F 30 in Calm   6 mph 98% 0 in
04:28 33.6 °F 33.8 °F 30 in Calm   5.6 mph 98% 0 in
04:35 33.6 °F 33.8 °F 30 in NNW 4.7 mph 6.3 mph 98% 0 in
04:42 33.4 °F 33.8 °F 30 in NE 4.9 mph 6.3 mph 98% 0 in
04:49 33.4 °F 33.8 °F 30 in NE 4.9 mph 6 mph 98% 0 in
04:57 33.4 °F 33.8 °F 30 in NE 2.7 mph 5.6 mph 98% 0 in
05:02 33.3 °F 33.8 °F 30 in NNE 4 mph 5.4 mph 98% 0 in
05:08 33.1 °F 33.8 °F 30 in NNE 3.4 mph 4.5 mph 98% 0 in
05:13 33.1 °F 33.8 °F 30 in NE 3.1 mph 4 mph 98% 0 in
05:25 32.9 °F 33.8 °F 30 in NNE 3.4 mph 3.6 mph 98% 0 in
05:35 32.9 °F 33.8 °F 30.1 in NE 1.1 mph 4 mph 98% 0 in
05:42 33.1 °F 33.8 °F 30 in NE 3.6 mph 3.8 mph 98% 0 in
05:48 33.1 °F 33.8 °F 30 in NNE 3.6 mph 3.8 mph 98% 0 in
05:54 32.9 °F 33.8 °F 30 in NNE 2.5 mph 4 mph 98% 0 in
05:59 32.9 °F 33.8 °F 30 in NNE 3.6 mph 4 mph 98% 0 in
06:06 32.9 °F 33.8 °F 30 in North 4.5 mph 4.9 mph 98% 0 in
06:11 32.9 °F 33.8 °F 30 in NE 1.1 mph 5.6 mph 98% 0 in
06:16 32.9 °F 33.8 °F 30 in NNW 3.6 mph 5.6 mph 98% 0 in
06:25 32.7 °F 33.8 °F 30 in NNE 2.7 mph 4.5 mph 98% 0 in
06:31 32.7 °F 33.8 °F 30 in Calm   5.4 mph 98% 0 in
06:37 32.7 °F 33.8 °F 30 in NE 4.3 mph 4.3 mph 98% 0 in
06:42 32.7 °F 33.8 °F 30 in NNE 4 mph 4.3 mph 98% 0 in
07:00 32.7 °F 33.8 °F 30 in Calm   4 mph 98% 0 in
07:11 32.7 °F 33.8 °F 30.1 in NNE 3.8 mph 4.3 mph 98% 0 in
07:19 32.7 °F 33.8 °F 30.1 in North 2.5 mph 4 mph 98% 0 in
07:28 32.5 °F 33.8 °F 30 in Calm   4.7 mph 98% 0 in
07:41 32.7 °F 33.8 °F 30 in NE 2.9 mph 4 mph 98% 0 in
07:46 32.7 °F 33.8 °F 30 in NNE 2.5 mph 3.8 mph 98% 0 in
07:56 32.7 °F 33.8 °F 30 in Calm   3.8 mph 98% 0 in
08:11 32.7 °F 33.8 °F 30 in NNE 3.6 mph 4.5 mph 98% 0 in
08:17 32.7 °F 33.8 °F 30 in NNE 2.7 mph 4.5 mph 98% 0 in
08:22 32.9 °F 33.8 °F 30 in North 4 mph 5.6 mph 98% 0 in
08:29 32.7 °F 33.8 °F 30 in NE 2.7 mph 5.4 mph 98% 0 in
08:39 32.7 °F 33.8 °F 30 in Calm   3.4 mph 98% 0 in
08:44 32.7 °F 33.8 °F 30 in Calm   3.4 mph 98% 0 in
08:56 32.7 °F 33.8 °F 30 in Calm     98% 0 in
09:18 33.3 °F 33.8 °F 30 in Calm     98% 0 in
09:28 33.4 °F 33.8 °F 30 in Calm   3.1 mph 98% 0 in
09:42 33.8 °F 33.8 °F 30 in Calm   0.9 mph 98% 0 in
09:51 33.8 °F 33.8 °F 30 in Calm   2.7 mph 98% 0 in
09:56 33.8 °F 33.8 °F 30 in Calm   4 mph 98% 0 in
10:01 34.2 °F 33.8 °F 30 in Calm   4 mph 98% 0 in
10:09 34.2 °F 33.8 °F 30 in Calm   1.1 mph 98% 0 in
10:20 34.2 °F 33.8 °F 30 in ENE 2.7 mph 2.9 mph 98% 0 in
10:30 34.2 °F 33.8 °F 30 in Calm   2.9 mph 98% 0 in
10:50 35.6 °F 35.6 °F 30.1 in Calm   3.1 mph 98% 0 in
10:58 35.6 °F 35.6 °F 30.1 in Calm   2 mph 98% 0 in
11:12 35.6 °F 35.6 °F 30.1 in Calm   3.4 mph 98% 0 in
11:18 35.6 °F 35.6 °F 30.1 in Calm   3.1 mph 98% 0 in
11:27 35.6 °F 35.6 °F 30.1 in Calm   3.4 mph 98% 0 in
11:33 35.6 °F 35.6 °F 30.1 in East 2.7 mph 2.7 mph 98% 0 in
11:40 35.6 °F 35.6 °F 30.1 in East 2 mph 3.8 mph 98% 0 in
11:47 35.6 °F 35.6 °F 30.1 in Calm   2 mph 98% 0 in
11:55 38.8 °F 39.2 °F 30.1 in Calm   4.9 mph 98% 0 in
12:00 39 °F 39.2 °F 30 in Calm   4.9 mph 98% 0 in
12:06 39.2 °F 39.2 °F 30 in ESE 4.3 mph 4.7 mph 98% 0 in
12:21 39.6 °F 39.2 °F 30 in Calm   5.6 mph 98% 0 in
12:26 39.6 °F 39.2 °F 30.1 in ESE 2.9 mph 4.7 mph 98% 0 in
12:34 40.1 °F 39.2 °F 30.1 in SE 4.5 mph 6 mph 97% 0 in
12:44 40.3 °F 39.2 °F 30 in Calm   6 mph 96% 0 in
12:53 40.6 °F 39.2 °F 30 in SE 2.7 mph 4 mph 96% 0 in
12:59 40.6 °F 39.2 °F 30 in Calm   5.4 mph 95% 0 in
13:08 41 °F 41 °F 30 in SSE 3.1 mph 3.1 mph 95% 0 in
13:21 41.4 °F 41 °F 30 in Calm   4.9 mph 95% 0 in
13:29 41.2 °F 39.2 °F 30 in Calm   5.4 mph 93% 0 in
13:48 41.5 °F 39.2 °F 30 in Calm   4.3 mph 91% 0 in
14:01 41.9 °F 41 °F 30 in South 2.9 mph 5.4 mph 91% 0 in
14:07 42.1 °F 39.2 °F 30 in Calm   5.8 mph 90% 0 in
14:21 41.9 °F 39.2 °F 30 in Calm   7.6 mph 88% 0 in
14:32 41.9 °F 39.2 °F 30 in South 3.8 mph 5.6 mph 88% 0 in
14:55 42.1 °F 39.2 °F 30 in South 3.8 mph 6.5 mph 87% 0 in
15:00 42.3 °F 39.2 °F 30 in Calm   6.5 mph 88% 0 in
15:08 43 °F 39.2 °F 30 in SSE 2.2 mph 5.6 mph 87% 0 in
15:14 43.3 °F 39.2 °F 30 in Calm   4 mph 86% 0 in
15:23 43.9 °F 41 °F 30 in SE 3.4 mph 5.8 mph 86% 0 in
15:38 44.2 °F 41 °F 30 in Calm   2.7 mph 85% 0 in
15:43 44.4 °F 41 °F 30 in Calm   3.8 mph 85% 0 in
15:56 43.9 °F 39.2 °F 30 in South 2.9 mph 5.6 mph 83% 0 in
16:03 43.5 °F 39.2 °F 30 in Calm   5.8 mph 83% 0 in
16:13 43.2 °F 39.2 °F 30 in Calm   4.9 mph 83% 0 in
16:21 42.6 °F 39.2 °F 30 in Calm   3.6 mph 84% 0 in
16:32 42.6 °F 39.2 °F 30 in Calm   3.6 mph 84% 0 in
16:40 42.6 °F 39.2 °F 30 in Calm   3.1 mph 84% 0 in
16:58 41.5 °F 37.4 °F 30 in South 0.9 mph 2.9 mph 86% 0 in
17:05 40.5 °F 37.4 °F 30 in Calm   2.9 mph 87% 0 in
17:10 40.5 °F 37.4 °F 30 in Calm   0.9 mph 87% 0 in
17:16 40.5 °F 37.4 °F 30 in Calm     87% 0 in
17:29 39.2 °F 35.6 °F 30 in Calm     88% 0 in
17:39 38.8 °F 35.6 °F 30 in Calm     89% 0 in
17:45 38.8 °F 35.6 °F 30 in Calm     90% 0 in
17:50 38.7 °F 35.6 °F 30 in Calm     90% 0 in
18:07 38.5 °F 37.4 °F 30 in Calm   4.3 mph 92% 0 in
18:15 38.7 °F 37.4 °F 30 in Calm   4 mph 93% 0 in
18:24 38.8 °F 37.4 °F 30 in SSW 1.3 mph 3.6 mph 94% 0 in
18:35 39.2 °F 37.4 °F 30 in Calm   2.7 mph 94% 0 in
18:41 39.4 °F 37.4 °F 30 in Calm   3.6 mph 94% 0 in
19:06 39.7 °F 37.4 °F 30 in Calm   3.1 mph 94% 0 in
19:12 39.9 °F 37.4 °F 30 in Calm   2.9 mph 94% 0 in
19:27 40.1 °F 39.2 °F 30 in South 2.9 mph 4.3 mph 94% 0 in
19:33 40.3 °F 39.2 °F 30 in Calm   3.8 mph 94% 0 in
19:42 40.3 °F 39.2 °F 30 in Calm   3.1 mph 94% 0 in
19:56 39.9 °F 37.4 °F 30 in Calm   3.8 mph 94% 0 in
20:02 39.7 °F 37.4 °F 30 in Calm   2.7 mph 94% 0 in
20:15 38.7 °F 37.4 °F 30 in Calm     93% 0 in
20:23 37.9 °F 35.6 °F 30 in Calm     92% 0 in
20:33 37.2 °F 35.6 °F 30 in Calm     92% 0 in
20:40 36.9 °F 35.6 °F 30 in Calm   2.5 mph 93% 0 in
20:52 36.1 °F 35.6 °F 30 in Calm     93% 0 in
20:59 35.6 °F 33.8 °F 30 in Calm     93% 0 in
21:07 35.8 °F 33.8 °F 30 in Calm     94% 0 in
21:15 35.6 °F 35.6 °F 30 in Calm   2.7 mph 95% 0 in
21:24 35.4 °F 35.6 °F 30 in South 1.3 mph 3.8 mph 96% 0 in
21:32 35.2 °F 33.8 °F 30 in Calm   2.9 mph 97% 0 in
21:43 35.1 °F 33.8 °F 30 in Calm     97% 0 in
21:48 34.9 °F 33.8 °F 30 in Calm     97% 0 in
21:54 34.9 °F 33.8 °F 30 in Calm     97% 0 in
22:00 34.7 °F 33.8 °F 30 in Calm     97% 0 in
22:08 34.9 °F 35.6 °F 30 in Calm   2.7 mph 98% 0 in
22:26 34 °F 33.8 °F 30 in Calm     97% 0 in
22:31 33.6 °F 33.8 °F 30 in Calm     98% 0 in
22:39 33.3 °F 33.8 °F 30 in Calm     98% 0 in
22:44 33.3 °F 33.8 °F 30 in Calm   2.7 mph 98% 0 in
22:51 33.4 °F 33.8 °F 30 in Calm   2.9 mph 98% 0 in
23:08 33.4 °F 33.8 °F 30 in Calm   0.9 mph 98% 0 in
23:17 33.6 °F 33.8 °F 30 in Calm   2.7 mph 98% 0 in
23:23 33.8 °F 33.8 °F 30 in Calm     98% 0 in
23:31 33.8 °F 33.8 °F 30 in West 2.9 mph 4 mph 98% 0 in
23:37 33.8 °F 33.8 °F 30 in Calm   4.7 mph 98% 0 in
23:47 33.6 °F 33.8 °F 30 in Calm   4.3 mph 98% 0 in
23:57 32.7 °F 33.8 °F 30 in Calm     98% 0 in
Données Historique de Météo Turbie

Mise a jour : 24/05/2018 10:06:21
Généré par Cumulus 1.9.4 (1099)